CAPE
293 195 142 149 142 120 134 67 80 75 50 9 0 0 0 0 1 1 1 4 3 1 1 1 0 0 0 4 1 0 0 8 27 1 0 0 0 0 1 2 0 0 0
213 135 91 107 82 71 67 92 74 38 1 0 0 2 2 0 2 1 0 11 10 1 1 1 1 0 0 0 0 2 0 3 0 8 2 0 0 0 0 0 0 0 0
4 8 45 89 91 108 92 82 59 28 4 3 0 1 3 5 6 4 3 2 1 1 1 1 1 0 0 0 2 0 0 0 0 3 0 0 0 0 0 0 0 0 0
3 0 22 78 40 32 17 18 7 3 0 0 0 0 0 0 4 1 0 2 4 1 4 2 0 0 0 0 0 0 0 0 0 0 0 0 0 0 0 0 0 0 0
6 1 0 5 1 0 0 0 0 0 0 0 0 0 1 0 0 0 0 0 0 0 0 0 0 0 0 0 0 0 1 0 0 0 0 1 1 0 0 0 0 1 2
6 7 6 3 6 6 5 5 3 4 4 3 3 2 3 5 4 1 0 0 0 0 0 2 4 4 2 0 0 0 0 1 0 0 0 2 0 0 1 0 0 2 0
1 2 5 5 7 9 10 10 8 7 7 7 7 6 7 10 5 2 1 2 3 5 6 6 6 10 7 7 13 11 10 7 1 0 0 1 1 6 5 3 3 2 1
4 4 1 0 1 5 6 9 7 9 11 13 11 11 11 8 7 8 8 7 7 6 5 5 7 7 7 4 5 6 10 8 7 7 7 10 5 2 2 2 2 3 2
4 3 2 3 1 0 3 5 5 6 6 7 6 7 6 6 5 6 5 5 9 9 4 2 3 4 6 3 2 9 13 8 2 0 0 0 0 0 0 0 0 0 1
1 3 3 3 1 5 3 1 1 2 3 4 4 3 4 7 6 4 2 3 6 5 4 3 3 4 3 3 2 1 3 5 0 0 0 0 0 0 0 0 0 0 0
1 0 0 0 1 1 4 4 5 5 1 1 1 2 2 3 5 5 3 1 2 4 4 4 3 5 4 2 1 2 5 0 0 0 0 0 0 0 0 0 0 0 0
0 0 0 0 0 0 1 1 1 1 2 3 3 3 1 1 2 4 3 1 1 1 1 0 1 2 3 2 0 0 0 0 0 0 0 0 0 0 0 0 0 0 0
0 0 0 0 0 0 0 0 0 1 1 1 1 1 0 0 1 1 1 1 1 0 0 1 2 2 0 0 0 0 0 0 0 0 0 0 0 0 0 0 0 0 0
0 0 0 0 0 0 0 0 0 0 0 0 0 0 0 0 0 0 1 0 1 1 0 0 0 0 0 0 0 0 0 0 0 0 0 0 0 0 0 0 0 0 0
0 0 0 0 1 1 0 0 0 0 0 0 0 0 0 0 0 0 0 0 0 0 0 0 0 0 0 0 0 0 0 0 0 0 0 0 0 0 0 0 0 0 0
0 0 0 0 0 0 0 0 1 0 0 0 0 0 0 0 0 1 1 1 1 0 0 0 0 0 0 0 0 0 0 0 0 0 0 0 0 0 0 0 0 0 0
1 1 0 0 0 0 0 0 0 0 0 1 0 0 0 0 0 0 0 0 0 0 0 0 0 0 0 0 0 0 0 0 0 0 0 0 0 0 0 0 0 0 0
0 0 0 0 0 0 0 0 0 0 0 0 0 0 0 0 0 0 0 0 0 0 0 0 0 0 0 0 0 0 0 0 0 0 0 0 0 0 0 0 0 0 0
0 0 0 0 0 0 0 0 0 0 0 0 0 0 0 0 0 0 0 0 0 0 0 0 0 0 0 0 0 0 0 0 0 0 0 0 0 0 0 0 0 0 0
0 0 0 0 0 0 0 0 0 0 0 0 0 0 0 0 0 0 0 0 0 0 0 0 0 0 0 0 0 0 0 0 0 0 0 0 0 0 0 0 0 0 0
0 0 0 0 0 0 0 0 0 0 0 0 0 0 0 0 0 0 0 0 0 0 0 0 0 0 0 0 0 0 0 0 0 0 0 0 0 0 0 0 0 0 0
0 0 0 0 0 0 0 0 0 0 0 0 0 0 0 0 0 0 0 0 0 0 0 0 0 0 0 0 0 0 0 0 0 0 0 0 0 0 0 0 0 0 0
0 0 0 0 0 0 0 0 0 0 0 0 0 0 0 0 0 0 0 0 0 0 0 0 0 0 0 0 0 0 0 0 0 0 0 0 0 0 0 0 0 0 0
0 0 0 0 0 0 0 0 0 0 0 0 0 0 0 0 0 0 0 0 0 0 0 0 0 0 0 0 0 0 0 0 0 0 0 0 0 0 0 0 0 0 0
0 0 0 0 0 0 0 0 0 0 0 0 0 0 0 0 0 0 0 0 0 0 0 0 0 0 0 0 0 0 0 0 0 0 0 0 0 0 0 0 0 0 0
0 0 0 0 0 0 0 0 0 0 0 0 0 0 0 0 0 0 0 0 0 0 0 0 0 0 0 0 0 0 0 0 0 0 0 0 0 0 0 0 0 0 0
CIN
-200 -141 -165 -204 -222 -255 -287 -327 -305 -307 -318 -303 -17 0 0 0 0 0 -12 -18 -2 0 0 0 0 0 0 -32 -15 -42 0 -44 -30 -27 0 0 0 -31 -29 -91 0 0 -31
-87 -74 -99 -135 -171 -179 -232 -233 -259 -263 -87 0 0 0 0 0 -60 -41 0 -18 -16 0 0 0 0 0 0 0 0 -61 -4 -75 0 -35 -72 0 0 0 0 0 0 0 0
-67 -79 -47 -68 -89 -96 -141 -184 -250 -311 -63 -60 0 -30 -53 -42 -25 -31 -27 -24 0 -10 -24 0 0 0 0 0 -35 0 -14 0 0 -48 0 0 0 0 0 0 0 0 0
0 -3 -10 -24 -71 -131 -166 -243 -145 -198 0 0 0 0 0 -2 -73 -19 0 -23 -18 -5 -18 -37 0 0 0 0 0 0 0 0 0 0 0 -19 0 0 0 0 0 0 0
0 0 0 0 0 0 0 0 0 0 0 0 0 0 0 0 0 0 0 -0 0 0 0 0 0 0 0 0 0 0 0 0 0 0 0 0 0 0 0 0 0 0 0
0 0 0 0 0 0 0 0 0 0 0 0 0 0 0 0 0 0 0 0 0 0 0 0 0 0 0 0 0 0 0 0 0 0 0 0 0 0 0 0 0 0 0
0 0 0 0 0 0 0 0 0 0 0 0 0 0 0 0 0 0 0 0 0 0 0 0 0 0 0 0 0 0 0 0 0 0 0 0 0 0 0 0 0 0 0
0 0 0 0 0 0 0 0 0 0 0 0 0 0 0 0 0 0 0 0 0 0 0 0 0 0 0 0 0 0 0 0 0 0 0 0 0 0 0 0 0 0 0
0 0 0 0 0 0 0 0 0 0 0 0 0 0 0 0 0 0 0 0 0 0 0 0 0 0 0 0 0 0 0 0 0 0 0 0 0 0 0 0 0 0 0
0 0 0 0 0 0 0 0 0 0 0 0 0 0 0 0 0 0 0 0 0 0 0 0 0 0 0 0 0 0 0 0 0 0 0 0 0 0 0 0 0 0 0
0 0 0 0 0 0 0 0 0 0 0 0 0 0 0 0 0 0 0 0 0 0 0 0 0 0 0 0 0 0 0 0 0 0 0 0 0 0 0 0 0 0 0
0 0 0 0 0 0 0 0 0 0 0 0 0 0 0 0 0 0 0 0 0 0 0 0 0 0 0 0 0 0 0 0 0 0 0 0 0 0 0 0 0 0 0
0 0 0 0 0 0 0 0 0 0 0 0 0 0 0 0 0 0 0 0 0 0 0 0 0 0 0 0 0 0 0 0 0 0 0 0 0 0 0 0 0 0 0
0 0 0 0 0 0 0 0 0 0 0 0 0 0 0 0 0 -0 0 0 0 0 0 0 0 0 0 0 0 0 0 0 0 0 0 0 0 0 0 0 0 0 0
0 0 0 0 0 0 0 0 0 0 0 0 0 0 0 0 0 0 0 0 0 0 0 0 0 0 0 0 0 0 0 0 0 0 0 0 0 0 0 0 0 0 0
0 0 0 0 0 0 0 0 0 0 0 0 0 0 0 0 0 0 0 0 0 0 0 0 0 0 0 0 0 0 0 0 0 0 0 0 0 0 0 0 0 0 0
0 0 0 0 0 0 0 0 0 0 0 0 -0 -0 -0 0 -0 0 0 0 0 0 0 0 0 0 0 0 0 0 0 0 0 0 0 0 0 0 0 0 0 0 0
0 0 0 0 0 0 0 0 0 0 0 0 0 0 -0 -0 -0 0 0 0 0 0 0 0 0 0 0 0 0 0 0 0 0 0 0 0 0 0 0 0 0 0 0
0 0 0 0 0 0 0 0 0 0 0 0 0 0 0 0 0 0 0 0 0 0 0 0 0 0 0 0 0 0 0 0 0 0 0 0 0 0 0 0 0 0 0
0 0 0 0 0 0 0 0 0 0 0 0 0 0 0 0 0 0 0 0 0 0 0 0 0 0 0 0 0 0 0 0 0 0 0 0 0 0 0 0 0 0 0
0 0 0 0 0 0 0 0 0 0 0 0 0 0 0 0 0 0 0 0 0 0 0 0 0 0 0 0 0 0 0 0 0 0 0 0 0 0 0 0 0 0 0
0 0 0 0 0 0 0 0 0 0 0 0 0 0 0 0 0 0 0 0 0 0 0 0 0 0 0 0 0 0 0 0 0 0 0 0 0 0 0 0 0 0 0
0 0 0 0 0 0 0 0 0 0 0 0 0 0 0 0 0 0 0 0 0 0 0 0 0 0 0 0 0 0 0 0 0 0 0 0 0 0 0 0 0 0 0
0 0 0 0 0 0 0 0 0 0 0 0 0 0 0 0 0 0 0 0 0 0 0 0 0 0 0 0 0 0 0 0 0 0 0 0 0 0 0 0 0 0 0
0 0 0 0 0 0 0 0 0 0 0 0 0 0 0 0 0 0 0 0 0 0 0 0 0 0 0 0 0 0 0 0 0 0 0 0 0 0 0 0 0 0 0
0 0 0 0 0 0 0 0 0 0 0 0 0 0 0 0 0 0 0 0 0 0 0 0 0 0 0 0 0 0 0 0 0 0 0 0 0 0 0 0 0 0 0
Wind_Speed
21 23 23 21 19 18 16 13 11 9 11 12 12 14 16 14 9 9 8 39 39 22 19 21 20 16 16 13 14 15 15 15 13 12 14 13 12 10 13 13 15 17 20
19 26 23 19 17 17 16 14 10 8 11 11 13 15 14 14 8 6 8 27 12 17 15 16 20 20 17 14 12 11 12 15 13 16 17 17 17 18 20 23 22 25 22
22 23 20 21 19 17 16 14 11 7 10 12 13 15 16 15 7 8 4 2 16 14 15 17 17 20 19 15 12 13 11 13 17 17 17 20 24 23 29 27 25 20 17
22 23 27 26 18 16 15 12 9 7 8 11 13 16 18 18 18 10 8 6 14 18 17 16 18 16 17 16 15 13 16 18 21 24 24 24 24 25 23 23 18 16 18
18 18 24 18 18 14 13 13 10 9 9 11 12 15 17 18 20 21 12 7 7 12 12 13 15 16 16 13 15 12 15 21 22 22 23 22 23 17 16 16 17 15 17
16 12 14 16 14 13 13 13 11 10 10 11 13 14 16 18 19 17 10 9 7 4 5 9 13 15 14 13 16 18 19 16 23 24 20 17 15 17 18 18 17 16 18
16 14 10 12 11 8 10 12 12 12 12 12 13 14 15 17 16 12 9 8 7 9 10 9 7 11 10 10 13 17 19 19 18 17 17 18 18 18 19 19 19 20 21
17 15 15 12 7 8 10 9 11 12 13 14 14 13 14 15 14 12 10 8 8 9 12 11 9 10 12 11 10 13 13 14 16 14 13 17 20 20 20 20 20 18 19
17 16 15 14 11 10 10 11 11 11 13 15 15 14 13 14 14 13 10 9 9 10 10 9 9 9 10 9 9 9 10 13 12 11 13 15 17 18 19 19 20 22 26
18 18 16 16 15 14 11 10 12 12 12 14 14 15 15 14 14 12 11 11 10 10 10 10 10 9 10 11 10 9 9 11 11 13 16 18 18 18 21 20 18 20 21
18 17 16 16 15 16 14 13 13 12 11 13 13 15 16 13 13 12 11 10 11 11 12 12 11 9 8 9 10 12 13 12 12 13 16 17 17 17 18 18 18 17 19
19 18 17 17 17 16 15 15 14 13 12 11 11 12 13 13 12 11 10 9 9 9 10 11 9 9 9 9 11 10 10 12 13 12 13 15 15 16 17 17 17 18 19
20 19 19 19 19 18 17 16 15 15 14 15 15 14 13 12 10 11 10 9 8 7 8 8 9 10 10 11 10 10 11 11 13 13 14 16 17 17 16 17 18 19 21
20 20 20 19 19 18 17 16 15 15 14 13 14 13 11 11 11 11 11 10 9 8 8 8 9 11 11 11 12 12 12 14 14 15 15 17 19 20 20 21 21 22 24
19 19 18 18 18 18 17 16 15 16 14 13 13 13 12 12 12 11 10 11 11 10 10 11 12 13 13 13 14 15 15 16 18 19 19 20 20 21 22 22 22 23 24
18 18 17 17 16 17 16 16 17 16 15 15 15 14 13 12 11 11 11 11 11 12 13 14 14 15 15 15 16 16 18 18 18 18 19 20 21 22 23 24 24 25 27
19 18 18 17 17 17 16 15 15 16 16 17 15 15 14 12 12 12 12 12 13 12 12 13 13 14 14 15 15 16 17 18 18 19 20 21 22 23 24 25 26 27 28
20 19 18 18 17 17 16 16 15 15 15 16 17 15 15 14 14 14 13 13 14 14 13 14 14 15 15 16 16 17 18 19 20 21 21 21 23 24 26 27 28 29 31
21 20 19 18 18 17 17 17 17 16 16 16 17 17 17 16 16 16 16 15 14 15 15 16 16 17 17 17 17 18 18 20 21 22 23 24 25 26 27 28 29 30 32
22 21 20 19 18 18 19 19 19 18 18 18 19 19 19 18 18 18 17 16 16 16 16 17 17 17 17 17 18 19 20 22 24 25 26 26 27 27 29 29 31 32 33
22 22 21 19 19 18 19 19 19 19 19 19 19 19 18 18 18 18 18 18 18 17 17 18 18 18 19 20 21 22 23 25 26 26 26 27 27 29 29 30 30 31 32
24 24 23 22 20 20 19 19 18 18 18 18 19 19 19 18 18 18 19 19 19 18 19 19 20 21 21 21 22 23 25 26 26 27 27 27 28 29 29 29 30 31 31
25 25 24 23 23 22 21 20 20 20 20 19 19 20 20 20 19 20 20 20 20 20 20 20 21 21 21 22 22 23 25 26 26 26 27 27 28 28 28 28 29 30 32
25 26 25 25 25 24 23 23 22 21 21 21 21 21 21 21 20 20 21 21 21 20 20 21 21 21 22 22 22 22 23 24 25 26 25 26 26 26 27 28 29 30 31
26 26 26 26 26 25 25 24 24 23 23 23 23 23 22 21 21 21 21 21 21 21 21 21 21 22 22 22 22 22 23 24 25 25 25 25 25 26 27 28 29 29 29
26 26 26 25 26 26 27 26 26 25 26 25 24 24 24 23 23 23 23 23 23 24 24 23 22 22 22 22 21 22 23 24 25 25 25 26 26 26 26 28 27 27 27
Wind_Direction
253 247 251 248 241 242 242 246 255 269 284 286 293 296 294 298 296 285 257 265 254 252 243 225 225 227 231 249 238 252 253 265 270 274 277 276 277 286 294 293 298 302 301
264 254 249 242 237 237 244 248 255 273 287 290 293 298 303 309 321 316 198 279 270 252 233 229 223 217 234 242 241 236 245 270 270 268 272 274 278 286 289 292 298 296 299
273 258 254 243 233 236 240 247 259 279 294 293 295 297 303 309 329 330 344 297 270 257 246 230 232 221 228 232 237 247 255 267 270 276 280 281 283 288 287 294 296 298 303
293 260 260 240 228 230 239 245 260 280 299 300 300 300 302 305 303 330 338 121 280 266 250 244 227 235 228 232 238 248 260 265 275 281 283 284 285 290 292 295 298 304 297
298 293 259 234 227 224 232 246 262 276 296 303 305 303 302 305 298 286 318 338 343 267 269 256 238 248 246 240 243 242 264 276 278 280 286 289 288 292 294 299 300 304 305
303 283 278 238 237 235 240 250 261 277 296 305 304 305 305 304 304 302 315 321 324 306 296 269 250 256 258 256 259 269 276 280 280 282 287 288 290 295 297 297 298 297 299
320 307 321 289 264 260 251 257 267 278 291 301 308 308 308 310 313 319 324 315 311 297 281 278 283 272 271 270 281 281 288 290 292 287 285 288 292 296 298 298 298 297 298
322 320 320 296 274 288 271 275 284 282 290 296 305 311 311 312 316 321 324 325 320 304 297 292 283 287 289 284 281 290 299 306 301 301 301 300 299 297 299 300 301 302 307
333 326 323 327 339 305 302 292 296 294 297 300 302 305 310 313 315 315 315 316 312 310 313 311 306 302 299 296 296 296 301 308 318 324 323 321 319 313 307 304 300 298 298
343 335 325 326 329 319 320 315 311 307 306 304 308 311 311 309 314 315 311 307 305 306 314 317 317 312 309 301 302 297 294 303 312 315 319 324 325 326 324 316 307 303 304
347 342 339 336 330 333 318 319 321 318 307 312 309 316 315 316 315 315 314 311 305 302 301 306 313 321 319 315 313 305 301 302 308 314 318 321 327 332 336 338 334 323 316
357 348 340 338 337 337 336 335 327 319 326 327 316 328 333 325 327 329 328 326 320 312 312 321 327 337 331 327 326 322 316 312 316 323 324 323 328 331 336 338 340 340 339
0 356 349 349 349 345 340 330 325 330 326 318 313 317 321 327 331 340 346 343 340 331 328 329 332 339 337 337 330 328 322 317 320 324 320 319 324 330 334 333 335 336 335
356 354 354 352 354 349 346 344 340 336 325 327 336 322 327 342 332 350 335 335 333 330 337 327 335 335 339 330 329 329 323 309 317 318 323 323 323 320 326 324 322 323 324
356 354 351 354 356 358 1 350 350 358 351 343 338 336 331 332 338 344 333 322 327 320 326 324 318 318 314 317 318 318 311 313 312 313 317 318 320 320 325 327 327 326 323
353 354 351 349 350 352 357 2 6 3 358 355 355 350 352 2 356 354 351 348 335 324 318 316 314 311 309 309 309 310 309 313 319 324 324 323 323 324 326 325 325 325 324
343 340 343 342 339 340 342 344 345 345 358 358 354 358 357 356 351 349 347 345 339 340 329 324 319 319 321 320 321 321 321 323 327 326 325 324 323 325 326 327 327 327 326
340 338 334 334 335 336 335 334 333 330 330 332 340 347 348 347 343 341 340 339 329 330 328 323 321 321 321 322 323 323 324 324 325 326 329 329 329 327 326 326 326 325 324
340 337 335 333 330 331 332 331 329 328 327 327 326 328 329 333 334 332 332 327 325 323 323 323 323 322 323 325 327 329 330 329 329 329 327 327 327 326 324 324 325 325 325
343 340 338 333 331 326 323 322 322 320 318 318 319 319 319 322 323 325 327 327 325 325 325 325 325 327 327 328 329 328 327 326 324 323 323 324 324 324 323 324 324 324 325
340 338 337 336 333 331 327 326 323 319 316 316 318 322 324 322 321 321 322 322 323 323 323 323 323 323 322 322 321 322 322 321 321 321 321 322 324 323 325 325 326 326 326
334 331 329 327 325 324 323 324 323 322 320 319 319 321 324 323 321 321 321 321 320 320 320 320 319 319 319 318 319 320 320 320 321 322 322 323 324 325 325 325 325 326 327
331 328 326 322 320 318 317 316 315 314 314 315 315 315 316 317 317 316 316 317 318 318 318 318 318 319 320 321 322 322 321 322 323 323 322 322 323 325 326 326 327 327 327
328 325 321 318 315 313 312 310 309 310 310 309 310 310 311 312 313 314 314 316 315 315 316 317 318 319 319 320 321 324 325 325 326 325 325 323 324 325 326 326 327 328 327
327 323 318 315 312 309 308 308 307 306 306 306 307 308 308 308 309 310 312 314 315 315 314 315 316 318 319 319 320 322 324 326 326 326 326 324 324 325 326 327 326 327 328
326 323 320 317 313 310 305 303 302 304 302 304 304 304 304 304 305 306 308 309 310 312 313 312 312 314 316 317 318 320 322 324 326 327 327 325 323 323 324 323 324 326 328